Weather History for Prestonsburg, KY

Change the Weather History Date:

Wednesday, January 16, 2013

  Actual Average (KJKL) Record (KJKL)
Temperature  
Mean Temperature 34 °F 35 °F  
Max Temperature 36 °F 43 °F 68 °F (1990)
Min Temperature 32 °F 27 °F -10 °F (1982)
Degree Days  
Heating Degree Days 31 30  
Month to date heating degree days 480  
Since 1 July heating degree days 2114  
Cooling Degree Days 0 0  
Month to date cooling degree days 0  
Year to date cooling degree days 0  
Moisture  
Dew Point 34 °F    
Average Humidity 99    
Maximum Humidity 100    
Minimum Humidity 97    
Precipitation  
Precipitation 0.00 in 0.12 in 0.76 in (2013)
Month to date precipitation 1.84  
Year to date precipitation 1.84  
Snow  
Snow 0.00 in 0.30 in - ()
Month to date snowfall 3.5  
Since 1 July snowfall 9.0  
Snow Depth -    
Sea Level Pressure  
Sea Level Pressure 30.02 in    
Wind  
Wind Speed 2 mph (WSW)    
Max Wind Speed 7 mph    
Max Gust Speed -    
Visibility 7 miles    
Events      
T = Trace of Precipitation, MM = Missing Value Source: NWS Daily Summary

Daily Weather History Graph

Daily Weather History Graph

Search for Another Location

Airport:

Trip Planner

Search our weather history database for the weather conditions in past years. The results will help you decide how hot, cold, wet, or windy it might be!

Date:

Astronomy

Jan. 16, 2013 Rise Set
Actual Time 7:44 AM EST 5:36 PM EST
Civil Twilight 7:15 AM EST 6:05 PM EST
Nautical Twilight 6:43 AM EST 6:37 PM EST
Astronomical Twilight 6:12 AM EST 7:09 PM EST
Moon 10:26 AM EST (1/16) 11:19 PM EST (1/16)
Length of Visible Light 10h 49m
Length of Day
9h 52m
Waxing Crescent, 28% of the Moon is Illuminated
Jan 16
Waxing Crescent
Jan 18
First Quarter
Jan 26
Full
Feb 3
Last Quarter
Feb 10
New

Hourly Weather History & Observations

Time (EST) Temp. Windchill Dew Point Humidity Pressure Visibility Wind Dir Wind Speed Gust Speed Precip Events Conditions
12:15 AM 32.4 °F - 32.2 °F 99% 30.03 in 5.0 mi Calm Calm - N/A   Overcast
12:35 AM 32.2 °F - 32.0 °F 99% 29.99 in 5.0 mi Calm Calm - N/A   Overcast
1:15 AM 32.4 °F 29.1 °F 32.4 °F 100% 29.97 in 5.0 mi ESE 3.5 mph - N/A   Overcast
1:35 AM 32.5 °F - 32.5 °F 100% 29.97 in 7.0 mi Calm Calm - N/A   Overcast
1:55 AM 32.5 °F - 32.5 °F 100% 29.99 in 7.0 mi Calm Calm - N/A   Overcast
2:35 AM 32.5 °F - 32.5 °F 100% 29.99 in 1.5 mi Calm Calm - N/A   Overcast
2:55 AM 32.5 °F - 32.5 °F 100% 29.98 in 3.0 mi Calm Calm - N/A   Overcast
3:15 AM 32.5 °F 29.3 °F 32.5 °F 100% 29.97 in 2.5 mi North 3.5 mph - N/A   Overcast
3:35 AM 32.5 °F - 32.5 °F 100% 29.98 in 3.0 mi Calm Calm - N/A   Overcast
3:55 AM 32.2 °F 27.7 °F 32.2 °F 100% 29.97 in 3.0 mi North 4.6 mph - N/A   Overcast
4:15 AM 32.4 °F - 32.4 °F 100% 29.97 in 2.0 mi Calm Calm - N/A   Overcast
4:35 AM 32.5 °F - 32.5 °F 100% 29.97 in 3.0 mi Calm Calm - N/A   Overcast
4:55 AM 32.5 °F - 32.5 °F 100% 29.96 in 2.5 mi Calm Calm - N/A   Overcast
5:15 AM 32.5 °F - 32.5 °F 100% 29.95 in 3.0 mi Calm Calm - N/A   Overcast
5:35 AM 32.5 °F - 32.5 °F 100% 29.95 in 4.0 mi Calm Calm - N/A   Overcast
5:55 AM 32.9 °F - 32.9 °F 100% 29.95 in 4.0 mi Calm Calm - N/A   Overcast
6:15 AM 32.9 °F - 32.9 °F 100% 29.95 in 3.0 mi Calm Calm - N/A   Overcast
6:55 AM 33.3 °F 27.9 °F 33.3 °F 100% 29.95 in 5.0 mi South 5.8 mph - N/A   Overcast
7:35 AM 34.0 °F 28.8 °F 33.8 °F 99% 29.96 in 10.0 mi South 5.8 mph - N/A   Overcast
7:55 AM 33.8 °F 29.6 °F 33.4 °F 99% 29.99 in 10.0 mi NNW 4.6 mph - N/A   Overcast
8:15 AM 33.4 °F - 33.3 °F 99% 29.99 in 10.0 mi Calm Calm - N/A   Overcast
8:35 AM 33.3 °F 30.2 °F 33.1 °F 99% 29.95 in 10.0 mi ESE 3.5 mph - N/A   Overcast
8:55 AM 33.8 °F 30.8 °F 33.8 °F 100% 29.99 in 10.0 mi WNW 3.5 mph - N/A   Overcast
9:15 AM 33.6 °F - 33.6 °F 100% 29.94 in 1.0 mi Calm Calm - N/A   Overcast
9:35 AM 33.4 °F 27.3 °F 33.4 °F 100% 30.00 in 2.5 mi NW 6.9 mph - N/A   Overcast
9:55 AM 33.3 °F - 33.3 °F 100% 29.98 in 7.0 mi Calm Calm - N/A   Overcast
10:15 AM 33.1 °F 26.9 °F 33.1 °F 100% 30.02 in 3.0 mi NW 6.9 mph - N/A   Overcast
10:35 AM 33.3 °F 28.9 °F 33.3 °F 100% 30.01 in 4.0 mi NW 4.6 mph - N/A   Overcast
10:55 AM 33.4 °F 28.1 °F 33.3 °F 99% 30.02 in 10.0 mi WNW 5.8 mph - N/A   Overcast
11:15 AM 33.6 °F 28.4 °F 32.9 °F 97% 30.02 in 10.0 mi WSW 5.8 mph - N/A   Overcast
11:35 AM 33.8 °F 30.8 °F 33.3 °F 98% 30.02 in 10.0 mi SW 3.5 mph - N/A   Overcast
11:55 AM 34.0 °F 28.8 °F 33.4 °F 98% 30.03 in 10.0 mi WSW 5.8 mph - N/A   Overcast
12:15 PM 34.0 °F 31.0 °F 33.6 °F 99% 30.03 in 10.0 mi West 3.5 mph - N/A   Overcast
12:35 PM 34.2 °F 31.2 °F 33.6 °F 98% 30.02 in 4.0 mi WSW 3.5 mph - N/A   Overcast
12:55 PM 34.2 °F 30.0 °F 33.8 °F 99% 30.02 in 1.8 mi West 4.6 mph - N/A   Overcast
1:15 PM 34.2 °F - 33.8 °F 99% 29.98 in 1.8 mi Calm Calm - N/A   Overcast
1:35 PM 34.3 °F 29.2 °F 34.2 °F 99% 30.03 in 2.0 mi WNW 5.8 mph - N/A   Overcast
1:55 PM 34.5 °F 29.4 °F 34.2 °F 99% 30.04 in 1.5 mi West 5.8 mph - N/A   Overcast
2:15 PM 34.3 °F - 34.2 °F 99% 30.01 in 1.8 mi Calm Calm - N/A   Overcast
2:55 PM 34.7 °F 30.6 °F 34.7 °F 100% 30.03 in 5.0 mi SW 4.6 mph - N/A   Overcast
3:15 PM 34.9 °F - 34.7 °F 99% 30.04 in 3.0 mi Calm Calm - N/A   Overcast
3:55 PM 35.1 °F 30.1 °F 34.9 °F 99% 30.04 in 7.0 mi WSW 5.8 mph - N/A   Overcast
4:15 PM 35.1 °F 31.0 °F 34.9 °F 99% 30.05 in 10.0 mi WSW 4.6 mph - N/A   Overcast
4:35 PM 35.1 °F 31.0 °F 34.9 °F 99% 30.06 in 2.0 mi SW 4.6 mph - N/A   Overcast
4:55 PM 35.4 °F 30.5 °F 35.2 °F 99% 30.05 in 5.0 mi SSW 5.8 mph - N/A   Overcast
5:15 PM 35.2 °F 31.2 °F 35.1 °F 99% 30.06 in 10.0 mi SW 4.6 mph - N/A   Overcast
5:35 PM 35.4 °F 31.5 °F 35.2 °F 99% 30.04 in 10.0 mi South 4.6 mph - N/A   Overcast
5:55 PM 35.6 °F 32.8 °F 35.2 °F 99% 30.07 in 10.0 mi SW 3.5 mph - N/A   Overcast
6:15 PM 35.6 °F 32.8 °F 35.4 °F 99% 30.07 in 10.0 mi SSW 3.5 mph - N/A   Overcast
6:35 PM 35.8 °F - 35.6 °F 99% 30.06 in 10.0 mi Calm Calm - N/A   Overcast
6:55 PM 35.8 °F 33.0 °F 35.6 °F 99% 30.06 in 10.0 mi SSW 3.5 mph - N/A   Overcast
7:15 PM 36.0 °F 32.1 °F 35.8 °F 99% 30.05 in 10.0 mi South 4.6 mph - N/A   Overcast
7:35 PM 36.0 °F - 35.8 °F 99% 30.05 in 10.0 mi Calm Calm - N/A   Overcast
7:55 PM 36.1 °F - 35.8 °F 99% 30.07 in 10.0 mi Calm Calm - N/A   Overcast
8:15 PM 36.0 °F - 35.8 °F 99% 30.06 in 10.0 mi Calm Calm - N/A   Overcast
8:35 PM 36.0 °F - 35.8 °F 99% 30.06 in 10.0 mi Calm Calm - N/A   Overcast
8:55 PM 36.0 °F 33.3 °F 35.8 °F 99% 30.08 in 10.0 mi NW 3.5 mph - N/A   Overcast
9:15 PM 36.0 °F 33.3 °F 35.8 °F 99% 30.08 in 10.0 mi NW 3.5 mph - N/A   Overcast
9:35 PM 35.8 °F 31.9 °F 35.8 °F 100% 30.07 in 10.0 mi NNW 4.6 mph - N/A   Overcast
9:55 PM 35.8 °F - 35.6 °F 99% 30.06 in 10.0 mi Calm Calm - N/A   Overcast
10:15 PM 36.0 °F - 35.8 °F 99% 30.08 in 10.0 mi Calm Calm - N/A   Overcast
10:35 PM 35.8 °F - 35.6 °F 99% 30.08 in 10.0 mi Calm Calm - N/A   Overcast
10:55 PM 35.8 °F - 35.6 °F 99% 30.08 in 10.0 mi Calm Calm - N/A   Overcast
11:15 PM 35.8 °F 33.0 °F 35.6 °F 99% 30.07 in 10.0 mi WSW 3.5 mph - N/A   Overcast
11:35 PM 35.8 °F - 35.6 °F 99% 30.08 in 10.0 mi Calm Calm - N/A   Overcast
11:55 PM 35.8 °F - 35.8 °F 100% 30.08 in 10.0 mi Calm Calm - N/A   Overcast